Regional Weather Roundup
Issued by NWS

Home | Current Version | Previous Version | Graphics & Text | Print | Product List | Glossary On
Versions: 1 2 3 4 5 6 7 8 9 10 11 12 13 14 15 16 17 18 19 20 21 22 23 24 25 26 27 28 29 30 31 32 33 34 35 36 37 38 39 40 41 42 43 44 45 46 47 48 49 50
000
ASUS43 KFSD 171810
RWRSD

WEATHER ROUNDUP FOR SOUTH DAKOTA
NATIONAL WEATHER SERVICE SIOUX FALLS SD
100 PM CDT TUE OCT 17 2017

NOTE: "FAIR" INDICATES FEW OR NO CLOUDS BELOW 12,000 FEET WITH NO
SIGNIFICANT WEATHER AND/OR OBSTRUCTIONS TO VISIBILITY.


SDZ001>005-009-010-012>017-171900-
NORTHWEST AND NORTH CENTRAL SOUTH DAKOTA

CITY           SKY/WX    TMP DP  RH WIND       PRES   REMARKS
BUFFALO          N/A     74  22  14 W20       29.91F
FAITH            N/A     77  23  13 SW12      29.96F
MOBRIDGE       SUNNY     69  38  32 S9        29.90F
$$

SDZ012>016-024>037-041>051-057-063-072>074-171900-
SOUTHWEST AND SOUTH CENTRAL SOUTH DAKOTA

CITY           SKY/WX    TMP DP  RH WIND       PRES   REMARKS
RAPID CTY ARPT SUNNY     73  33  23 SE10      30.00F
PIERRE         SUNNY     64  36  35 SW6       29.97F
CUSTER         SUNNY     65  16  15 CALM      30.11F
ELLSWORTH AFB  SUNNY     76  26  16 S8        29.99F
PHILIP         SUNNY     74  35  24 W8        29.98F
PINE RIDGE     SUNNY     70  23  17 VRB7      30.06F
SPEARFISH      FAIR      72  19  14 CALM      30.03F
WINNER         FAIR      75  41  29 SW12      30.02F
$$

SDZ004>011-016>023-039-040-171900-
NORTHEAST SOUTH DAKOTA

CITY           SKY/WX    TMP DP  RH WIND       PRES   REMARKS
ABERDEEN       SUNNY     69  43  38 S13       29.94F
WATERTOWN      SUNNY     69  42  37 S8        29.99F
BROOKINGS      SUNNY     71  37  28 SW10      30.01F
SISSETON         N/A     72  38  29 SW10      29.92F
$$

SDZ017-020-022-023-036>040-048>070-171900-
SOUTHEAST SOUTH DAKOTA

CITY           SKY/WX    TMP DP  RH WIND       PRES   REMARKS
SIOUX FALLS    SUNNY     72  47  40 S7        30.02F
HURON          SUNNY     72  47  40 MISG      29.98F
CHAMBERLAIN    SUNNY     74  41  30 SW6       30.01F
MITCHELL       SUNNY     75  41  29 S10       30.00F
YANKTON        SUNNY     71  45  39 SW7       30.04F
$$

ABBREVIATIONS USED IN REMARKS
   TC - TEMPERATURE IN CELSIUS
  WCI - WIND CHILL INDEX
   HX - HEAT INDEX
  VSB - VISIBILITY





USA.gov is the U.S. government's official web portal to all federal, state and local government web resources and services.